CAPE
880 941 1087 1032 931 750 745 745 684 598 605 662 656 683 727 788 1021 1201 1205 1176 1092 1101 1082 1059 1035 1186 1251 1242 1116 877 575 432 415 384 398 332 489 517 308 107 38 180 95
1210 1287 1224 1155 1015 856 845 806 795 798 850 849 823 825 880 953 1071 1141 1113 1101 1179 1260 1349 1243 1132 1199 1083 939 738 466 291 289 243 410 497 515 453 404 334 218 108 192 186
1400 1470 1458 1184 1094 1011 1006 992 1040 1007 990 1029 1064 1049 1073 1111 1102 1089 1204 1323 1487 1490 1389 1195 1193 1122 1017 787 500 310 263 270 294 315 252 269 354 273 330 104 172 246 194
1322 1407 1518 1312 1215 1135 1133 1154 1199 1242 1131 1099 1145 1211 1254 1265 1222 1260 1333 1335 1475 1481 1422 1293 1184 1036 811 571 235 177 223 138 39 46 273 283 323 256 208 84 180 61 14
1157 1377 1258 1397 1573 1588 1536 1511 1454 1373 1292 1222 1213 1317 1310 1240 1273 1300 1297 1289 1417 1553 1652 1483 1203 824 665 391 46 185 176 158 48 108 313 315 408 360 232 23 25 0 0
795 1007 897 1003 1248 1483 1656 1701 1685 1521 1460 1419 1359 1365 1452 1381 1334 1314 1276 1298 1464 1582 1593 1424 1093 655 561 497 29 22 123 127 92 402 311 228 428 414 166 51 0 0 0
29 83 380 661 777 927 1180 1408 1588 1634 1529 1463 1560 1529 1458 1530 1412 1243 1231 1384 1480 1529 1811 1323 835 583 508 512 396 66 1 0 223 351 374 265 412 498 382 27 0 17 23
0 0 0 14 464 627 754 866 1103 1272 1410 1530 1513 1589 1660 1621 1528 1412 1278 1352 1412 1473 1447 1279 753 524 505 418 351 220 16 0 230 371 443 248 252 467 346 86 87 58 0
0 0 0 0 0 110 245 561 697 801 939 1119 1260 1403 1488 1594 1586 1456 1392 1365 1443 1512 1571 1333 819 528 472 448 258 128 0 0 373 453 458 336 30 210 422 11 21 4 0
0 0 0 0 0 0 1 0 113 206 552 727 872 1021 1127 1299 1549 1514 1371 1330 1275 1358 1379 1438 1071 529 375 323 173 18 0 0 308 469 438 403 0 66 206 36 0 7 78
0 0 0 0 0 0 0 0 0 0 0 107 393 671 1016 1095 1026 1492 1397 1252 1156 1160 1201 1214 1302 813 368 264 144 46 30 157 281 440 485 264 89 238 325 200 16 0 73
0 0 0 0 0 0 0 0 0 0 0 0 1 0 238 601 625 692 938 1145 1218 1102 1045 1138 1161 1115 713 579 442 178 282 302 372 318 417 220 183 318 477 420 185 111 201
0 0 0 0 0 0 0 0 0 0 0 0 0 2 1 0 4 118 755 825 1220 1281 1288 1093 1319 1355 1259 1012 637 494 401 423 336 295 282 158 190 369 708 553 149 263 206
0 0 0 0 0 0 0 0 0 0 0 0 0 0 0 0 0 0 0 0 482 1005 1075 1120 1265 930 1226 1251 925 622 495 385 303 258 288 125 153 339 770 695 301 260 270
0 0 0 0 0 0 0 0 0 0 0 0 0 0 0 0 0 0 0 0 0 0 336 628 852 1021 769 1128 1113 764 522 394 370 297 260 137 119 197 600 785 679 571 363
0 0 0 0 0 0 0 0 0 0 0 0 0 0 0 0 0 0 0 0 0 0 0 0 259 788 763 833 1113 1005 650 457 361 300 199 179 70 124 274 590 748 727 417
0 0 0 0 0 0 0 0 0 0 0 0 0 0 0 0 0 0 0 0 0 0 0 0 0 79 764 581 873 964 966 651 436 307 234 138 135 64 130 247 469 679 475
0 0 0 0 0 0 0 0 0 0 0 0 0 0 0 0 0 0 0 0 0 0 0 2 2 2 1 429 444 768 955 890 557 392 297 167 111 149 125 112 150 650 490
0 0 0 0 0 0 0 0 0 0 0 0 0 0 0 0 0 0 0 0 0 1 2 3 1 3 3 1 29 399 681 875 869 512 386 244 177 97 220 247 117 156 507
0 0 0 0 0 0 0 0 0 0 0 0 0 0 0 0 0 0 0 0 1 1 2 1 1 0 0 4 7 3 33 606 795 793 464 354 260 230 159 156 214 149 212
0 0 0 0 0 0 0 0 0 0 0 0 0 0 0 0 0 0 1 1 2 1 1 2 0 0 0 3 0 6 1 17 493 477 587 434 432 362 344 366 313 408 263
0 0 0 0 0 0 0 0 0 0 0 0 0 0 0 0 0 0 1 1 2 2 2 2 1 2 0 2 8 5 0 0 85 201 492 413 376 306 273 338 384 372 440
0 0 0 0 0 0 0 0 0 0 0 0 0 0 0 0 0 1 2 1 2 4 4 4 1 2 3 0 1 6 8 8 12 116 160 335 262 208 183 182 260 401 463
0 0 0 0 0 0 0 0 0 0 0 0 0 0 0 0 0 0 1 1 0 3 4 3 6 2 3 3 1 0 4 4 4 5 66 223 278 184 198 123 186 312 437
0 0 0 0 0 0 0 0 0 0 0 0 0 0 0 0 0 0 1 1 0 2 2 5 4 1 4 8 8 4 4 4 6 10 5 22 7 17 80 195 116 188 209
0 0 0 0 0 0 0 0 0 0 0 0 0 0 0 0 1 1 1 1 0 2 2 3 2 2 6 4 0 4 6 7 4 8 14 5 40 154 166 205 107 70 99
CIN
-191 -229 -213 -187 -190 -222 -231 -226 -213 -203 -187 -167 -173 -157 -137 -110 -73 -53 -40 -35 -36 -38 -37 -41 -43 -38 -22 -29 -36 -45 -71 -99 -110 -103 -77 -77 -16 -3 -15 -82 -110 -2 -25
-238 -202 -194 -181 -182 -202 -204 -205 -187 -165 -140 -141 -142 -142 -119 -90 -77 -63 -56 -49 -38 -25 -19 -33 -44 -43 -46 -53 -62 -99 -159 -169 -177 -89 -39 -18 -15 -8 -5 -12 -31 -6 0
-184 -149 -139 -164 -169 -166 -162 -153 -130 -131 -122 -113 -107 -110 -94 -82 -80 -76 -59 -44 -26 -24 -27 -46 -41 -38 -36 -50 -92 -151 -161 -152 -137 -104 -108 -55 -30 -27 -4 -67 -4 -1 -2
-167 -130 -93 -119 -124 -130 -120 -115 -110 -110 -109 -97 -95 -92 -75 -69 -70 -62 -53 -48 -35 -29 -32 -43 -45 -50 -66 -80 -182 -216 -164 -229 -320 -281 -73 -45 -20 -24 -17 -65 -6 -61 -33
-201 -139 -169 -99 -52 -39 -29 -29 -48 -60 -75 -78 -80 -69 -68 -67 -61 -59 -55 -52 -39 -26 -19 -28 -42 -64 -81 -100 -294 -148 -140 -147 -233 -156 -41 -26 -5 -6 -10 -109 -13 0 0
-269 -209 -225 -180 -108 -47 -9 -12 -11 -24 -39 -36 -40 -37 -26 -36 -43 -50 -53 -46 -29 -21 -21 -31 -49 -83 -87 -81 -270 -268 -133 -120 -129 -17 -23 -32 -3 -4 -14 -46 0 0 0
-522 -364 -333 -231 -194 -156 -97 -55 -21 -19 -22 -18 -11 -15 -24 -17 -21 -32 -35 -28 -20 -16 -5 -29 -62 -90 -96 -88 -93 -176 -32 0 -39 -25 -15 -19 -1 0 -1 -11 0 -11 -8
0 0 0 -299 -244 -196 -167 -137 -87 -54 -17 -10 -12 -7 -3 -4 -12 -16 -16 -11 -10 -10 -15 -29 -67 -96 -103 -101 -99 -111 -96 0 -54 -33 -21 -22 -17 -2 0 -13 -16 -7 0
0 0 0 0 0 -322 -252 -154 -121 -100 -74 -42 -21 -4 -5 -3 -2 -9 -15 -12 -2 -1 -1 -17 -57 -92 -105 -103 -115 -126 0 0 -40 -26 -12 -10 -67 -11 -3 -33 -34 -7 0
0 0 0 0 0 0 0 0 -278 -227 -124 -90 -61 -35 -23 -9 -2 -11 -14 -10 -12 -3 -1 -3 -22 -78 -105 -119 -143 -197 0 -8 -55 -35 -26 -19 0 -40 -10 -34 0 -14 -23
0 0 0 0 0 0 0 0 0 0 0 -141 -131 -62 -17 -11 -18 0 -3 -19 -22 -17 -15 -15 -6 -30 -96 -126 -149 -193 -189 -116 -80 -39 -31 -50 -87 -23 -1 -14 -38 0 -18
0 0 0 0 0 0 0 0 0 0 0 0 0 0 -163 -51 -40 -35 -16 -8 -9 -20 -28 -20 -24 -18 -34 -46 -74 -141 -106 -86 -80 -73 -49 -94 -73 -30 -1 -1 -9 -11 0
0 0 0 0 0 0 0 0 0 0 0 0 0 0 0 0 -27 -190 -18 -10 0 -1 -1 -9 -11 -7 -8 -9 -38 -67 -81 -79 -84 -101 -89 -139 -98 -34 0 -2 -14 -4 -2
0 0 0 0 0 0 0 0 0 0 0 0 0 0 0 0 0 0 0 0 -51 0 0 0 0 -28 -15 -10 -20 -35 -63 -91 -98 -99 -102 -173 -138 -55 -1 -2 -14 -6 -1
0 0 0 0 0 0 0 0 0 0 0 0 0 0 0 0 0 0 0 0 0 0 -7 -10 -1 -1 -26 -10 -13 -37 -48 -73 -97 -103 -115 -153 -170 -120 -17 0 -2 -2 0
0 0 0 0 0 0 0 0 0 0 0 0 0 0 0 0 0 0 0 0 0 0 0 0 -41 0 -7 -10 -3 -8 -51 -58 -87 -107 -128 -120 -218 -157 -87 -20 0 0 -1
0 0 0 0 0 0 0 0 0 0 0 0 0 0 0 0 0 0 0 0 0 0 0 0 0 -126 -1 -6 -2 -4 -6 -45 -91 -129 -125 -138 -140 -238 -137 -90 -32 -1 -5
0 0 0 0 0 0 0 0 0 0 0 0 0 0 0 0 0 0 0 0 0 0 0 0 0 0 0 -13 -14 -11 -1 -3 -68 -133 -127 -138 -149 -144 -178 -141 -109 -8 -12
0 0 0 0 0 0 0 0 0 0 0 0 0 0 0 0 0 0 0 0 0 0 0 0 0 0 0 0 -35 -19 -18 -1 -3 -49 -121 -155 -128 -162 -100 -93 -123 -94 -17
0 0 0 0 0 0 0 0 0 0 0 0 0 0 0 0 0 0 0 0 0 0 0 -1 0 0 0 0 0 0 -92 -1 -1 0 -64 -99 -126 -126 -137 -111 -78 -106 -73
0 0 0 0 0 0 0 0 0 0 0 0 0 0 0 0 0 0 0 0 0 0 0 0 0 0 0 -1 0 0 0 -79 0 -1 -7 -80 -51 -148 -109 -85 -73 -33 -63
0 0 0 0 0 0 0 0 0 0 0 0 0 0 0 0 0 0 0 0 0 0 0 0 0 0 0 0 0 0 0 0 -21 -1 -6 -3 -38 -90 -147 -114 -59 -53 -26
0 0 0 0 0 0 0 0 0 0 0 0 0 0 0 0 0 0 0 0 0 0 0 0 0 0 -1 0 0 -2 0 0 -14 -13 -17 -4 -19 -37 -119 -166 -110 -68 -48
0 0 0 0 0 0 0 0 0 0 0 0 0 0 0 0 0 0 0 0 -1 0 0 0 0 0 0 0 0 0 -2 0 0 0 -1 -1 -12 -64 -55 -66 -107 -79 -63
0 0 0 0 0 0 0 0 0 0 0 0 0 0 0 0 0 0 0 0 0 0 0 0 0 -2 0 0 0 0 0 0 0 0 0 -5 -32 -94 -77 -42 -55 -30 -25
0 0 0 0 0 0 0 0 0 0 0 0 0 0 0 0 0 0 0 0 0 -1 0 0 0 0 0 0 0 0 0 0 0 -2 -1 0 0 -1 -23 -26 -34 -36 -2
Wind_Speed
12 13 14 15 16 17 17 18 19 20 21 22 22 22 21 20 19 18 17 16 16 15 16 16 17 17 17 17 17 17 17 18 19 19 19 19 19 18 18 18 18 17 17
13 13 14 15 16 16 16 17 18 18 19 20 20 21 20 19 19 18 17 16 16 16 16 16 17 17 17 17 16 17 17 19 19 19 19 19 19 19 19 19 19 18 18
20 16 16 16 16 16 16 16 16 17 17 18 18 19 19 19 18 17 16 16 16 16 16 16 16 17 17 16 16 16 17 18 18 19 18 18 18 19 19 19 20 20 19
20 18 18 17 16 16 15 15 15 16 16 16 17 17 17 17 17 16 16 15 15 16 16 16 16 16 16 16 15 15 17 17 17 18 18 18 17 18 18 19 19 20 21
21 20 20 20 19 18 18 18 17 16 16 16 16 16 16 16 16 16 15 15 15 16 16 16 16 16 16 15 15 15 16 17 16 18 18 17 16 16 17 18 19 19 19
22 22 21 20 20 20 20 19 19 18 17 16 16 16 16 15 15 15 15 14 14 15 15 16 16 16 15 14 14 15 16 16 15 16 16 16 15 14 15 15 16 17 17
23 23 22 22 21 21 21 21 20 20 20 19 18 17 15 15 15 15 14 14 14 15 15 16 16 15 14 13 12 13 14 15 15 15 13 13 14 12 13 14 15 15 15
23 24 23 23 23 23 22 22 21 21 21 21 22 22 19 17 15 14 14 15 14 15 15 15 15 14 14 13 12 12 13 14 14 15 12 12 12 10 11 12 13 13 14
24 24 24 24 24 24 24 23 23 22 22 22 22 23 23 21 19 18 17 16 17 16 15 14 14 14 13 12 12 12 12 13 13 14 11 11 10 9 9 10 11 12 12
24 25 25 25 24 25 25 26 25 24 24 24 24 24 24 25 22 20 19 18 16 18 16 15 16 15 13 11 10 10 11 12 11 12 11 9 9 8 8 8 9 9 9
25 26 26 26 26 26 25 26 26 26 25 26 26 26 25 25 25 26 23 20 18 17 19 17 15 15 12 10 9 10 10 10 10 10 11 8 6 7 7 7 7 7 7
26 27 27 27 27 26 26 26 27 27 26 26 27 28 27 27 26 27 28 28 23 18 16 18 19 16 14 12 11 10 9 10 10 10 10 6 4 4 5 5 5 6 6
25 25 27 27 28 27 27 27 27 27 27 27 28 29 28 27 28 28 28 27 27 26 21 19 17 17 18 17 14 12 11 9 10 10 10 6 2 1 3 4 5 5 5
25 26 28 28 28 29 28 28 28 28 28 28 29 30 30 30 30 30 30 31 30 28 28 23 20 19 18 16 16 16 14 11 10 11 11 7 3 2 3 2 3 5 5
24 26 28 29 29 29 29 29 29 29 29 29 29 31 31 31 32 32 32 32 32 33 32 32 27 24 23 22 18 16 15 16 14 12 13 10 7 5 5 5 3 4 5
25 27 28 29 29 29 29 29 29 30 30 30 30 32 32 32 33 34 34 34 34 34 35 35 35 28 27 27 24 19 18 17 18 16 15 14 11 8 9 8 5 5 6
25 27 28 29 30 30 30 29 29 30 31 31 31 33 33 34 35 36 35 35 36 38 37 37 38 37 29 29 28 28 25 22 21 20 18 17 15 13 11 11 8 7 7
26 28 29 30 31 31 31 30 30 31 32 32 33 34 35 36 37 37 37 38 39 37 37 38 38 39 39 34 32 32 32 30 25 25 24 21 18 17 14 15 14 11 10
26 28 30 31 33 33 32 31 31 32 33 33 34 35 37 37 39 39 39 40 40 38 37 38 39 39 42 43 42 36 35 34 31 28 26 25 23 21 18 16 18 16 15
27 28 30 32 34 34 34 33 33 33 35 35 36 37 38 39 40 40 40 41 40 40 40 40 42 41 43 44 45 47 45 38 36 35 33 28 28 26 22 21 18 18 18
27 29 32 34 35 36 37 38 37 39 38 38 37 39 39 40 41 42 42 42 41 42 43 43 43 44 44 44 48 46 48 46 39 40 38 35 31 29 26 25 23 21 19
28 30 32 34 35 36 35 36 35 37 37 37 39 39 39 41 42 41 42 43 43 44 44 44 45 47 44 39 43 49 50 48 46 33 45 42 36 35 32 30 30 27 25
28 30 32 33 34 35 36 36 37 35 38 39 41 40 41 41 41 41 42 43 44 44 46 45 45 46 48 44 40 41 47 46 41 38 34 42 38 37 38 34 32 33 31
27 29 31 32 34 35 37 38 40 41 43 43 42 42 42 41 41 41 42 43 44 44 46 46 46 46 46 48 45 41 45 51 50 50 36 33 42 37 37 38 36 35 35
27 29 31 33 34 36 37 39 40 41 41 41 41 42 41 41 40 41 42 43 45 45 46 46 48 47 46 48 47 46 49 49 51 55 60 50 41 44 44 41 38 38 40
26 28 30 33 35 36 37 39 40 42 42 42 42 42 41 40 40 41 43 43 45 46 47 47 46 47 47 46 49 49 52 51 51 52 57 56 58 46 41 40 43 44 45
Wind_Direction
60 64 59 55 54 53 52 53 55 59 65 62 55 54 52 53 54 49 42 36 26 22 22 22 24 26 31 34 37 37 37 35 31 32 34 34 35 38 37 31 30 36 33
39 60 48 44 44 39 43 42 44 50 56 60 61 50 47 49 45 44 39 33 27 25 20 20 20 22 26 30 30 28 28 26 28 30 31 33 33 35 33 36 32 35 35
44 47 38 36 34 29 29 33 35 36 43 50 54 56 50 41 39 37 35 30 30 26 24 21 20 21 23 22 23 24 24 23 25 27 29 29 32 31 37 35 35 39 44
25 22 18 19 23 23 23 25 27 30 34 36 39 44 46 46 37 30 25 24 22 19 18 18 18 16 17 19 21 21 20 20 23 22 23 28 31 36 41 40 44 46 50
9 6 359 356 360 0 3 6 12 21 26 26 27 28 31 35 38 37 29 21 17 16 13 12 10 8 11 16 14 14 14 14 20 19 22 26 30 41 46 45 49 52 55
5 5 2 1 360 358 355 355 355 359 6 16 19 19 19 20 23 26 26 23 20 17 16 13 11 11 14 17 17 13 14 14 23 18 21 28 32 45 49 47 51 56 60
8 5 2 360 1 358 354 351 351 351 350 352 356 3 11 15 11 13 16 15 12 8 9 6 6 8 10 14 19 15 14 13 18 18 27 31 36 51 52 51 52 59 60
6 4 360 354 352 352 349 347 348 345 344 340 337 337 344 351 359 5 6 2 2 360 360 0 3 3 5 7 9 11 11 10 10 12 26 32 37 56 59 53 52 66 67
1 357 354 350 348 349 348 345 343 341 340 337 335 332 331 334 339 342 344 346 344 346 349 351 355 357 1 4 5 6 7 7 6 8 20 25 41 61 70 61 59 63 72
358 356 350 348 346 346 347 342 339 336 335 334 333 332 329 325 329 331 332 333 341 334 338 340 340 345 350 356 359 2 4 0 4 5 12 22 44 64 83 77 66 67 71
357 353 350 347 344 343 345 342 341 340 336 332 330 329 328 328 325 323 324 326 329 331 324 327 331 335 340 343 345 349 352 355 357 357 360 13 60 73 82 84 78 63 66
354 351 350 349 348 347 348 346 343 340 340 339 336 332 330 326 325 322 319 317 320 321 321 318 316 321 326 329 334 333 338 340 342 344 347 5 51 78 82 74 83 77 72
357 358 354 353 354 353 352 350 350 348 343 340 338 334 331 331 328 325 321 321 318 317 314 315 314 311 310 313 317 319 321 324 327 328 331 339 5 96 96 84 97 110 89
358 358 356 355 356 356 356 353 351 348 345 342 340 338 333 329 326 324 323 320 317 316 312 310 307 305 303 302 303 304 304 305 309 312 313 310 304 225 172 122 120 128 121
0 359 357 356 356 354 355 355 355 353 353 351 347 342 338 333 329 326 322 319 317 314 312 309 304 301 299 297 293 289 291 292 291 295 300 294 275 249 209 188 169 154 147
357 354 356 357 357 356 354 352 352 351 349 348 347 345 344 340 334 329 324 320 316 314 310 307 304 299 296 293 291 283 282 281 283 283 286 289 275 251 218 214 209 189 174
352 353 351 352 354 356 354 353 351 350 349 347 344 342 340 339 335 332 329 326 319 312 308 306 304 302 293 292 289 287 284 278 276 274 275 278 278 260 234 223 226 212 199
350 347 349 348 347 350 349 348 348 347 345 343 341 339 337 334 332 330 328 326 322 319 312 306 303 300 299 292 287 286 283 282 275 272 273 270 269 270 255 227 223 216 208
346 344 344 341 343 345 347 347 346 346 344 341 339 336 334 333 330 327 326 324 323 320 317 313 305 302 297 294 291 287 282 280 276 274 265 265 265 263 263 254 226 221 214
342 342 341 339 341 342 343 343 343 342 341 339 337 335 334 332 330 328 327 325 323 319 316 312 308 304 298 295 292 287 284 279 275 273 270 265 263 261 258 260 257 234 222
345 344 344 342 341 341 340 339 338 337 336 336 336 334 332 330 329 328 325 324 324 319 315 311 308 305 302 299 293 290 283 281 276 272 271 267 262 258 257 259 259 259 249
344 344 345 344 344 345 346 344 340 336 336 334 334 332 332 331 330 329 326 324 322 318 316 312 308 302 301 302 295 291 284 284 277 281 269 268 265 264 260 259 260 258 257
343 344 345 346 347 348 347 344 342 341 337 336 334 334 332 332 331 329 328 325 323 320 315 313 309 303 298 298 297 290 284 282 290 279 271 266 265 264 263 259 259 258 256
343 346 347 348 347 347 346 343 341 338 335 334 333 333 334 334 333 332 330 328 325 321 316 312 309 304 300 295 294 290 286 282 279 279 283 274 262 261 264 264 260 259 254
344 345 346 347 346 345 344 343 342 340 339 337 336 335 335 334 334 333 331 328 326 324 320 314 309 303 298 295 291 288 286 283 280 275 273 273 274 268 265 264 260 260 259
343 345 344 342 343 343 344 344 343 340 339 338 337 337 336 336 336 335 332 331 329 326 321 316 310 304 300 296 293 288 283 280 277 275 273 272 269 270 267 263 262 266 259